Flag for Germany Weather past 2 weeks in Herrenberg, Baden-Württemberg, Germany

59 °F

Broken clouds.

Feels Like: 60 °F
Forecast: 48 / 60 °F
Wind: 3 mph from Southwest

Location: Stuttgart-Echterdingen

Current Time: Oct 6, 2015 at 7:20:50 PM

Latest Report: Oct 6, 2015 at 6:50 PM

Visibility: N/A

Pressure: 29.77 "Hg

Humidity: 94%

Dew point: 57 °F

Location of HerrenbergLocation

Historic Weather in Herrenberg — Graph


Herrenberg temperature yesterday

Maximum temperature yesterday: 66 °F (at 2:50 PM)
Minimum temperature yesterday: 43 °F (at 12:50 AM)
Average temperature yesterday: 54 °F

Past Weeks' High & Low Weather Summary

High72 °F (Oct 3, 3:50 PM)100% (Sep 25, 8:20 AM)30.51 "Hg (Sep 25, 8:20 AM)
Low41 °F (Oct 1, 4:50 AM)32% (Sep 30, 3:50 PM)29.65 "Hg (Sep 22, 7:20 PM)
Average55 °F72%30.14 "Hg
* Reported Sep 21 6:20 PM — Oct 6 6:20 PM, Herrenberg, Weather by CustomWeather, © 2015

Note: Actual official high and low records may vary slightly from our data, if they occured in-between our weather recording intervals... More about our weather records


Herrenberg weather history for previous 24 hours

Time TempWeatherWind HumidityBarometerVisibility
6:20 PM
Tue, Oct 6
61 °FSprinkles. Broken clouds.5 mph88%29.77 "HgN/A
5:50 PM61 °FRain showers. Partly sunny.2 mph94%29.74 "HgN/A
5:20 PM61 °FSprinkles. Broken clouds.2 mph94%29.74 "HgN/A
4:50 PM59 °FRain showers. Broken clouds.2 mph94%29.74 "HgN/A
4:20 PM61 °FRain showers. Broken clouds.16 mph83%29.74 "HgN/A
3:50 PM66 °FSprinkles. Broken clouds.13 mph73%29.74 "HgN/A
3:20 PM66 °FBroken clouds.2 mph83%29.74 "HgN/A
2:50 PM66 °FSprinkles. Broken clouds.2 mph83%29.74 "HgN/A
2:20 PM66 °FSprinkles. Broken clouds.6 mph83%29.74 "HgN/A
1:50 PM66 °FBroken clouds.1 mph83%29.74 "HgN/A
1:20 PM66 °FLight rain. Broken clouds.2 mph83%29.74 "HgN/A
12:50 PM66 °FSunny.2 mph78%29.74 "Hg10 mi
12:20 PM66 °FSunny.1 mph78%29.74 "Hg10 mi
11:50 AM64 °FSunny.2 mph83%29.74 "Hg10 mi
11:20 AM63 °FSunny.2 mph88%29.74 "Hg10 mi
10:50 AM63 °FSunny.No wind88%29.74 "Hg10 mi
10:20 AM61 °FSunny.2 mph88%29.74 "Hg10 mi
9:50 AM61 °FSunny.1 mph88%29.74 "Hg10 mi
9:20 AM57 °FSunny.1 mph100%29.77 "Hg10 mi
8:50 AM57 °FSunny.2 mph94%29.77 "Hg10 mi
8:20 AM55 °FClear.2 mph100%29.77 "Hg10 mi
7:50 AM54 °FClear.3 mph100%29.77 "Hg10 mi
7:20 AM55 °FPassing clouds.2 mph94%29.77 "HgN/A
6:20 AM55 °FPassing clouds.3 mph100%29.77 "HgN/A
5:50 AM55 °FClear.2 mph100%29.77 "Hg10 mi
5:20 AM57 °FClear.1 mph94%29.77 "Hg10 mi
4:50 AM57 °FClear.1 mph94%29.77 "Hg10 mi
4:20 AM57 °FClear.1 mph94%29.77 "Hg10 mi
3:50 AM57 °FPassing clouds.2 mph100%29.77 "HgN/A
3:20 AM55 °FPassing clouds.2 mph100%29.77 "HgN/A
2:50 AM57 °FPartly cloudy.1 mph94%29.80 "HgN/A
2:20 AM57 °FPassing clouds.2 mph94%29.80 "HgN/A
1:50 AM57 °FPassing clouds.1 mph94%29.80 "HgN/A
1:20 AM57 °FPassing clouds.2 mph94%29.80 "HgN/A
12:50 AM57 °FPassing clouds.3 mph94%29.80 "HgN/A
12:20 AM57 °FLight rain. Passing clouds.3 mph94%29.80 "HgN/A
11:50 PM
Mon, Oct 5
57 °FLight rain. Passing clouds.2 mph94%29.83 "HgN/A
11:20 PM57 °FLight rain. Passing clouds.2 mph94%29.83 "HgN/A
10:50 PM57 °FPassing clouds.2 mph94%29.83 "HgN/A
10:20 PM57 °FLight rain. Passing clouds.1 mph94%29.83 "HgN/A
9:50 PM59 °FLight rain. Clear.3 mph82%29.83 "HgN/A
9:20 PM59 °FLight rain. Clear.3 mph82%29.86 "HgN/A
8:50 PM57 °FLight rain. Clear.3 mph94%29.86 "HgN/A
8:20 PM59 °FLight rain. Partly cloudy.2 mph88%29.86 "HgN/A
7:50 PM59 °FSunny.7 mph82%29.86 "Hg10 mi
7:20 PM59 °FSunny.3 mph88%29.89 "Hg10 mi
Weather by CustomWeather, © 2015

See weather overviewHow to use our weather pages